Погода в Канашах

Россия / Курганская область     56°12′17″N   63°28′41″E
темп.,
°C
ветер,
м/с
пор.,
м/с
влажн.,
%
обл.,
%
осадки,
мм/ч
давл.,
гПа
погр.,
м
8 марта, пн
пн823:00−11ссз5994100 1.8 1005290
02:00−17зсз349588 0.1 100757
05:00−19з449851 0.1 100865
08:00−21зюз34961 0.0 100958
11:00−15юз469130 0.0 1009241
14:00−11ю5985100 0.0 1008538
17:00−10ююз71289100 0.1 1006798
20:00−8ю61394100 0.2 1005551
9 марта, вт
вт923:00−6ююз81688100 0.4 1004552
02:00−7юз6158578 0.0 1004369
05:00−8юз6138871 0.0 1005317
08:00−7ююз5129498 0.1 1004434
11:00−4ююз9148999 0.9 1003780
14:00−3зюз101571100 0.5 10031565
17:00−5зсз498698 0.6 1007720
20:00−10зюз348637 0.0 101024
10 марта, ср
ср1023:00−12зюз348657 0.0 101234
02:00−13з2289100 0.0 101220
05:00−13юв2289100 0.0 101020
08:00−12вюв3591100 0.0 100890
11:00−8вюв3692100 0.0 1006283
14:00−6в5791100 0.0 1004516
17:00−6в61089100 0.1 1001660
20:00−7в61194100 0.5 1001523
11 марта, чт
чт1123:00−8всв71294100 1.3 1001489
02:00−10св71194100 0.9 1001481
05:00−15ссв71194100 1.7 1003391
08:00−16ссв61095100 0.7 1004392
11:00−16с6994100 1.1 1006422
14:00−15ссз6892100 0.3 1006519
17:00−15ссз6991100 0.4 1008539
20:00−18ссз51093100 0.0 1010393
12 марта, пт
пт1223:00−20ссз4796100 0.1 1012169
02:00−25сз349832 0.0 101443
05:00−27ссз349616 0.0 101631
08:00−28сз23970 0.0 101823
11:00−21з23915 0.0 1019232
14:00−17зюз348517 0.0 1019441
17:00−15ююз359258 0.1 1020401
20:00−17ююз349787 0.0 102155